Location: Cheching
(60.0667°N, 164.2167°W)
Time: 08:21:33
(UTC+00:00)

XW-2D - Pass Details

Date: 22 January 2021
Orbit: 505 x 525 km, 97.5° (Epoch: 09 March)

Event Time Altitude Azimuth Distance (km) Brightness Sun altitude
Rises 18:29:58 0° 11° (N) 2,672 ? -7.2°
Reaches altitude 10° 18:32:18 10° 359° (N) 1,781 ? -7.0°
Maximum altitude 18:35:32 26° 302° (WNW) 1,060 ? -6.6°
Drops below altitude 10° 18:38:45 10° 245° (WSW) 1,775 ? -6.3°
Sets 18:41:05 0° 232° (SW) 2,661 ? -6.0°
